Skip Page Navigation
NASA JPL Caltech
NASA Logo - Jet Propulsion Laboratory + View the NASA Portal
+ Center for Near-Earth Object Studies
JPL Home Earth Solar System Stars & Galaxies Technology
JPL Solar System Dynamics
BODIES ORBITS EPHEMERIDES TOOLS PHYSICAL DATA DISCOVERY FAQ SITE MAP
IMPORTANT: The SSD Announcement email list is now available. Major changes are coming in the near future, including possible hostname and/or URL changes. To be notified of such changes, subscribe to this email list.

Please visit this page for more details.


JPL Small-Body Database Browser
Search: [ help ]  
434631 (2005 VB114)
Classification: Outer Main-belt Asteroid          SPK-ID: 2434631
Ephemeris | Orbit Diagram | Orbital Elements | Mission Design | Physical Parameters | Discovery Circumstances | Close-Approach Data ]

[ show orbit diagram ]
Orbital Elements at Epoch 2458600.5 (2019-Apr-27.0) TDB
Reference: JPL 9 (heliocentric ecliptic J2000)
 Element Value Uncertainty (1-sigma)   Units 
e .126621159110841 3.1173e-07  
a 3.427417920736511 1.2973e-07 au
q 2.993434290855586 1.1632e-06 au
i 13.65999959481815 1.8185e-05 deg
node 245.1245134009685 6.3759e-05 deg
peri 118.2026189133682 0.00010403 deg
M 92.56209812379767 6.792e-05 deg
tp 2458004.591320337205
(2017-Sep-08.09132034)
0.00046064 TDB
period 2317.656244045872
6.35
0.00013158
3.602e-07
d
yr
n .1553293336424894 8.8187e-09 deg/d
Q 3.861401550617437 1.4615e-07 au
  Orbit Determination Parameters
   # obs. used (total)      78  
   data-arc span      4781 days (13.09 yr)  
   first obs. used      2005-11-10  
   last obs. used      2018-12-13  
   planetary ephem.      DE431  
   SB-pert. ephem.      SB431-N16  
   condition code      0  
   norm. resid. RMS      .48905  
   source      ORB  
   producer      Otto Matic  
   solution date      2019-Jul-14 05:41:09  

Additional Information
 Earth MOID = 2.02295 au 
 Jupiter MOID = 1.74469 au 
 T_jup = 3.083 
[ show covariance matrix ]

Ephemeris | Orbit Diagram | Orbital Elements | Mission Design | Physical Parameters | Discovery Circumstances | Close-Approach Data ]

Physical Parameter Table
Parameter Symbol Value Units Sigma Reference Notes
absolute magnitude H 15.6   n/a MPO335588  

434631 (2005 VB114)          Discovered 2005-Nov-10 by Mt. Lemmon Survey at Mount Lemmon
Reference: Last Updated: 2015-06-04

[ show close-approach data ]
Alternate Designations
 2005 VB114 = 2010 HL92 
Ephemeris | Orbit Diagram | Orbital Elements | Mission Design | Physical Parameters | Discovery Circumstances | Close-Approach Data ]
ABOUT SSD CREDITS/AWARDS PRIVACY/COPYRIGHT GLOSSARY LINKS
FirstGov
(server date/time)  
NASA Home Page
Site Manager:   Ryan S. Park
Webmaster  Alan B. Chamberlin